Tacoma Narrows, WA

11:13 PM PST on December 16, 2017 (GMT -0800)
Tacoma Narrows

Weather History for KTIW - January, 2013

Change the Weather History Date:

Sunday, January 20, 2013

  Actual Average Record
Temperature  
Mean Temperature 36 °F -  
Max Temperature 39 °F 45 °F 55 °F (2005)
Min Temperature 33 °F 37 °F 32 °F (2009)
Degree Days  
Heating Degree Days 29    
Moisture  
Dew Point 34 °F    
Average Humidity 93    
Maximum Humidity 100    
Minimum Humidity 86    
Precipitation  
Precipitation 0.00 in - - ()
Sea Level Pressure  
Sea Level Pressure 30.34 in    
Wind  
Wind Speed 1 mph (NE)    
Max Wind Speed 5 mph    
Max Gust Speed -    
Visibility 1 miles    
Events Fog    
Averages and records for this station are not official NWS values.
T = Trace of Precipitation, MM = Missing Value Source: NWS Daily Summary

Daily Weather History Graph

Daily Weather History Graph

Search for Another Location

Airport or City:

Trip Planner

Search our weather history database for the weather conditions in past years. The results will help you decide how hot, cold, wet, or windy it might be!

Date:

Astronomy

Jan. 20, 2013 Rise Set
Actual Time 7:48 AM PST 4:54 PM PST
Civil Twilight 7:14 AM PST 5:28 PM PST
Nautical Twilight 6:37 AM PST 6:06 PM PST
Astronomical Twilight 6:00 AM PST 6:42 PM PST
Moon 12:00 PM PST (1/20) 2:24 AM PST (1/20)
Length of Visible Light 10h 14m
Length of Day
9h 06m
Waxing Gibbous, 67% of the Moon is Illuminated
Jan 20
Waxing Gibbous
Jan 26
Full
Feb 3
Last Quarter
Feb 9
New
Feb 17
First Quarter

Hourly Weather History & Observations

Time (PST) Temp. Windchill Dew Point Humidity Pressure Visibility Wind Dir Wind Speed Gust Speed Precip Events Conditions
12:39 AM 35.6 °F - 33.8 °F 93% 30.37 in 0.2 mi Calm Calm - N/A Fog Fog
12:53 AM 35.1 °F - 34.0 °F 96% 30.39 in 0.2 mi Calm Calm - N/A Fog Fog
1:27 AM 35.6 °F - 33.8 °F 93% 30.37 in 0.2 mi Calm Calm - N/A Fog Fog
1:53 AM 35.1 °F - 34.0 °F 96% 30.39 in 0.2 mi Calm Calm - N/A Fog Fog
2:53 AM 35.1 °F - 34.0 °F 96% 30.40 in 0.2 mi Calm Calm - N/A Fog Fog
3:53 AM 36.0 °F - 34.0 °F 93% 30.39 in 0.2 mi Calm Calm - N/A Fog Fog
4:53 AM 35.1 °F - 34.0 °F 96% 30.38 in 0.2 mi Calm Calm - N/A Fog Fog
5:30 AM 35.6 °F - 33.8 °F 93% 30.36 in 0.2 mi Calm Calm - N/A Fog Fog
5:53 AM 35.1 °F 32.2 °F 34.0 °F 96% 30.38 in 0.2 mi NNE 3.5 mph - N/A Fog Fog
6:09 AM 35.6 °F 32.8 °F 33.8 °F 93% 30.36 in 0.2 mi NE 3.5 mph - N/A Fog Fog
6:32 AM 35.6 °F 31.7 °F 33.8 °F 93% 30.36 in 0.5 mi North 4.6 mph - N/A Fog Fog
6:50 AM 35.6 °F 31.7 °F 33.8 °F 93% 30.36 in 1.5 mi NNE 4.6 mph - N/A   Overcast
6:53 AM 34.0 °F 31.0 °F 33.1 °F 96% 30.38 in 1.5 mi NNE 3.5 mph - N/A   Overcast
7:18 AM 33.8 °F 30.8 °F 33.8 °F 100% 30.36 in 0.5 mi ENE 3.5 mph - N/A Fog Fog
7:53 AM 35.1 °F - 33.1 °F 92% 30.38 in 1.0 mi Calm Calm - N/A   Mist
8:18 AM 35.6 °F 32.8 °F 33.8 °F 93% 30.37 in 0.5 mi Variable 3.5 mph - N/A Fog Fog
8:53 AM 35.1 °F 32.2 °F 34.0 °F 96% 30.39 in 0.5 mi ENE 3.5 mph - N/A Fog Fog
9:05 AM 35.6 °F 31.7 °F 33.8 °F 93% 30.38 in 1.8 mi NNE 4.6 mph - N/A   Overcast
9:23 AM 35.6 °F 31.7 °F 33.8 °F 93% 30.38 in 0.8 mi NNE 4.6 mph - N/A   Overcast
9:53 AM 33.8 °F 30.8 °F 33.8 °F 100% 30.39 in 0.2 mi NE 3.5 mph - N/A Fog Fog
10:53 AM 35.1 °F - 34.0 °F 96% 30.40 in 0.2 mi Calm Calm - N/A Fog Fog
11:53 AM 36.0 °F - 34.0 °F 93% 30.36 in 0.5 mi Calm Calm - N/A Fog Fog
12:53 PM 37.0 °F - 34.0 °F 89% 30.34 in 0.5 mi Calm Calm - N/A Fog Fog
1:53 PM 37.9 °F - 35.1 °F 89% 30.32 in 0.5 mi Calm Calm - N/A Fog Fog
2:22 PM 37.4 °F - 33.8 °F 87% 30.30 in 3.0 mi Calm Calm - N/A   Overcast
2:53 PM 39.0 °F - 35.1 °F 86% 30.32 in 3.0 mi Calm Calm - N/A   Overcast
3:53 PM 37.9 °F 35.5 °F 34.0 °F 86% 30.31 in 6.0 mi NNE 3.5 mph - N/A   Overcast
4:53 PM 37.9 °F - 35.1 °F 89% 30.30 in 5.0 mi Calm Calm - N/A   Overcast
5:36 PM 37.4 °F - 35.6 °F 93% 30.28 in 5.0 mi Calm Calm - N/A   Overcast
5:53 PM 37.0 °F - 35.1 °F 93% 30.29 in 5.0 mi Calm Calm - N/A   Overcast
6:53 PM 37.0 °F - 35.1 °F 93% 30.28 in 3.0 mi Calm Calm - N/A   Overcast
7:53 PM 37.0 °F - 35.1 °F 93% 30.27 in 0.5 mi Calm Calm - N/A Fog Fog
8:46 PM 37.4 °F - 35.6 °F 93% 30.27 in 1.2 mi Calm Calm - N/A   Overcast
8:53 PM 37.0 °F - 35.1 °F 93% 30.28 in 1.0 mi Calm Calm - N/A   Mist
9:31 PM 37.4 °F - 35.6 °F 93% 30.27 in 0.8 mi Calm Calm - N/A   Mist
9:53 PM 37.0 °F - 35.1 °F 93% 30.28 in 0.5 mi Calm Calm - N/A Fog Fog
10:53 PM 37.0 °F - 35.1 °F 93% 30.28 in 0.5 mi Calm Calm - N/A Fog Fog
11:53 PM 37.0 °F - 35.1 °F 93% 30.27 in 0.5 mi Calm Calm - N/A Fog Fog